Weather Roundup
Issued by NWS Springfield, MO

Home | Current Version | Previous Version | Text Only | Print | Product List | Glossary On
Versions: 1 2 3 4 5 6 7 8 9 10 11 12 13 14 15 16 17 18 19 20 21 22 23 24 25 26 27 28 29 30 31 32 33 34 35 36 37 38 39 40 41 42 43 44 45 46 47 48 49 50
000
NZUS99 KSGF 181607
HRRSGF

HOURLY WEATHER
NATIONAL WEATHER SERVICE SPRINGFIELD MO
1100 AM CDT SAT APR 18 2015

......SGF CWA......

CITY           SKY/WX    TMP DP  RH WIND       PRES   REMARKS
SPRINGFIELD    LGT RAIN  62  60  93 S8        29.98R
JOPLIN         LGT RAIN  60  58  92 VRB5      29.99S
WEST PLAINS    CLOUDY    66  59  78 SE10      30.02S
ROLLA          PTSUNNY   67  60  78 SE9       29.98S
OSAGE BEACH    CLOUDY    68  59  73 SE9       29.98R
BRANSON        CLOUDY    63  59  88 CALM      30.02R

......SURROUNDING SGF CWA......

CITY           SKY/WX    TMP DP  RH WIND       PRES   REMARKS
CHANUTE        LGT RAIN  62  60  93 S14       29.96R
PARSONS        RAIN      61  61 100 SE5       29.99R
COFFEYVILLE    LGT RAIN  61  60  97 NE5       29.96F FOG
EMPORIA        CLOUDY    61  57  87 SE7       29.93F
GROVE OK       LGT RAIN  63  63 100 S5        30.00R
ROGERS AR      CLOUDY    61  59  93 NW5       30.02S
SILOAM SPRINGS CLOUDY    61  54  77 CALM      30.03R
HARRISON AR    CLOUDY    66  61  84 VRB3      30.00R
NEAR YELLVILLE CLOUDY    63 N/A N/A CALM      29.98S

......KANSAS AND MISSOURI......

CITY           SKY/WX    TMP DP  RH WIND       PRES   REMARKS
KANSAS CTY INT RAIN      59  58  96 SW18G24   29.94R FOG
DOWNTOWN KC    RAIN      62  58  86 W9G22     29.94F FOG
COLUMBIA       PTSUNNY   72  61  68 SE15      29.97S
SEDALIA        CLOUDY    72  60  66 SW8       29.96R
ST JOSEPH      TSTM      61  60  97 S13       29.94R VSB 1
ST LOUIS       PTSUNNY   73  60  63 E8        30.01R
SPIRIT OF STL  CLOUDY    72  60  66 SE8       30.00R
KIRKSVILLE     TSTM      62  57  83 W13G24    29.99S
WICHITA        LGT RAIN  63  59  87 SE7       29.93R
TOPEKA         LGT RAIN  61  59  93 S9        29.94F
OLATHE         LGT RAIN  61  59  93 W8        29.93F

......TENNESSEE......

CITY           SKY/WX    TMP DP  RH WIND       PRES   REMARKS
MEMPHIS        PTSUNNY   72  63  73 CALM      30.01R
NASHVILLE      CLOUDY    73  61  65 SE3       30.01R

......ARKANSAS.......

CITY           SKY/WX    TMP DP  RH WIND       PRES   REMARKS
FAYETTEVILLE   RAIN      61  59  93 NW7       30.01S FOG
FT SMITH       RAIN      64  60  87 N7        29.98R
LITTLE ROCK    CLOUDY    69  61  75 CALM      29.96S

......OKLAHOMA.......

CITY           SKY/WX    TMP DP  RH WIND       PRES   REMARKS
TULSA          CLOUDY    65  61  87 E8        29.94R
PONCA CITY     PTSUNNY   68  59  73 CALM      29.92S
MCALESTER      CLOUDY    67  61  81 VRB6      29.96R
OKLAHOMA CITY  PTSUNNY   69  57  65 E5        29.92S

......IOWA............

CITY           SKY/WX    TMP DP  RH WIND       PRES   REMARKS
DES MOINES     PTSUNNY   70  56  61 E12       29.95F
QUAD CITIES    PTSUNNY   73  53  49 E7        30.00F

......ILLINOIS........

CITY           SKY/WX    TMP DP  RH WIND       PRES   REMARKS
QUINCY         CLOUDY    72  58  61 S8        30.00R
CHICAGO        PTSUNNY   55  38  52 NE14      30.10S



USA.gov is the U.S. government's official web portal to all federal, state and local government web resources and services.